Tracking 35331 objects as of 17-Sep-2026
HD Live streaming from Space Station
objects crossing your sky now

SHAKUNTALA


SHAKUNTALA is no longer on orbit


NORAD ID: 52173
Int'l Code: 2022-033S
Launch date: April 1, 2022
Source: India (IND)
Launch site: AIR FORCE EASTERN TEST RANGE (AFETR)
Decay date: 2024-01-13
Your satellite tracking list
Your tracking list is empty




NASA's NSSDC Master Catalog

Two Line Element Set (TLE):
1 52173U 22033S   24013.06466547  .17106680  25362-5  34900-3 0  9997
2 52173  97.3285 109.7298 0015205 301.1382  58.8429 16.45790183100192
Source of the keplerian elements: AFSPC